Flag for Canada Weather past 2 weeks in Barrie, Ontario, Canada

Now
57 °F

Passing clouds.


Feels Like: 57 °F
Forecast: 52 / 71 °F
Wind: 2 mph from North

Location: Borden

Current Time: Jul 23, 2014 at 11:12:38 PM

Latest Report: Jul 23, 2014 at 10:00 PM


Visibility: 9 mi

Pressure: 30.03 "Hg

Humidity: 77%

Dew point: 50 °F

Location of BarrieLocation

Historic Weather in Barrie — Graph

°F

Barrie temperature yesterday

Maximum temperature yesterday: 86 °F (at 1:00 PM)
Minimum temperature yesterday: 61 °F (at 2:01 AM)
Average temperature yesterday: 72 °F

Past Weeks' High & Low Weather Summary

 TemperatureHumidityPressure
High86 °F (Jul 22, 1:00 PM)100% (Jul 22, 2:01 AM)30.26 "Hg (Jul 22, 2:01 AM)
Low41 °F (Jul 10, 6:00 AM)45% (Jul 21, 5:00 PM)29.58 "Hg (Jul 8, 9:00 PM)
Average65 °F74%30.00 "Hg
* Reported Jul 8 9:00 PM — Jul 23 9:00 PM, Barrie, Weather by CustomWeather, © 2014

Note: Actual official high and low records may vary slightly from our data, if they occured in-between our weather recording intervals... More about our weather records

Advertising

Barrie weather history for previous 24 hours

 ConditionsComfort  
Time TempWeatherWind HumidityBarometerVisibility
9:00 PM
Jul 23
61 °FScattered clouds.6 mph68%30.02 "Hg9 mi
8:00 PM66 °FSunny.7 mph60%30.01 "Hg9 mi
7:00 PM66 °FScattered clouds.10 mph64%29.99 "Hg9 mi
6:00 PM68 °FPassing clouds.9 mph64%29.98 "Hg9 mi
5:00 PM66 °FOvercast.14 mph68%29.99 "Hg9 mi
4:00 PM66 °FOvercast.15 mph68%29.99 "Hg9 mi
3:46 PM64 °FOvercast.17 mph73%30.00 "Hg9 mi
3:00 PM64 °FOvercast.13 mph73%29.99 "Hg9 mi
2:52 PM64 °FOvercast.15 mph73%29.99 "Hg9 mi
2:00 PM64 °FOvercast.15 mph78%29.98 "Hg9 mi
1:00 PM64 °FOvercast.17 mph78%29.96 "Hg9 mi
12:00 PM64 °FOvercast.15 mph78%29.94 "Hg9 mi
11:00 AM64 °FOvercast.15 mph78%29.93 "Hg9 mi
10:00 AM64 °FOvercast.13 mph78%29.92 "Hg9 mi
9:00 AM63 °FOvercast.13 mph88%29.93 "Hg9 mi
8:00 AM64 °FOvercast.13 mph88%29.91 "Hg9 mi
7:00 AM64 °FOvercast.13 mph88%29.88 "Hg9 mi
6:00 AM66 °FLight rain. Passing clouds.6 mph94%29.86 "Hg9 mi
5:02 AM70 °FOvercast.8 mph88%29.86 "Hg8 mi
4:00 AM75 °FOvercast.8 mph78%29.83 "Hg9 mi
2:00 AM77 °FMostly cloudy.8 mph74%29.84 "Hg9 mi
1:00 AM75 °FPassing clouds.8 mph78%29.86 "Hg9 mi
12:00 AM75 °FPartly cloudy.8 mph74%29.87 "Hg9 mi
11:00 PM
Jul 22
77 °FOvercast.8 mph69%29.90 "Hg9 mi
Weather by CustomWeather, © 2014

See weather overviewHow to use our weather pages